Location: Anne Acres
(38.7004°N, 75.0827°W)
Time: 08:39:36
(UTC+00:00)

Courier 1B Rocket - Pass Details

Date: 12 November 2024
Orbit: 920 x 1201 km, 28.2° (Epoch: 06 December)

Event Time Altitude Azimuth Distance (km) Brightness Sun altitude
Rises 00:00:40 0° 256° (WSW) 3,599 9.3 -25.7°
Reaches altitude 10° 00:03:38 10° 246° (WSW) 2,629 8.1 -26.3°
Maximum altitude 00:08:58 30° 187° (S) 1,592 6.1 -27.3°
Enters shadow 00:10:07 28° 168° (SSE) 1,652 6.1 -27.5°
